Weather in Severny

Russia / Novosibirsk Oblast     56°01′09″N   82°41′17″E
temp.,
°C
wind,
m/s
gust,
m/s
humid.,
%
clouds,
%
prec.,
mm/h
press.,
hPa
HPBL,
m
3 march, wed
wed301:00−15s119795 0.3 101620
04:00−15ssw129779 0.1 101621
07:00−18ssw129877 0.1 101720
10:00−15ssw239687 0.1 1017193
13:00−11ssw249390 0.1 1018417
16:00−9ssw3591100 0.1 1018524
19:00−11s3794100 0.1 1018365
22:00−14ssw31195100 0.1 1019354
4 march, thu
thu401:00−14ssw4129399 0.1 1019486
04:00−15ssw51292100 0.0 1018490
07:00−13s51292100 0.1 1018586
10:00−10ssw61292100 0.3 1017645
13:00−7ssw61293100 0.8 1016677
16:00−5ssw61193100 0.5 1015758
19:00−5ssw51293100 1.2 1014870
22:00−5ssw51493100 0.3 1013831
5 march, fri
fri501:00−4ssw61493100 0.9 1012805
04:00−5ssw61489100 0.1 1010746
07:00−6s51488100 0.1 1009594
10:00−6ssw61394100 0.3 1007734
13:00−4sw61293100 1.3 1008861
16:00−2wsw6127767 0.3 10101213
19:00−5sw5138367 0.3 1012855
22:00−7sw61491100 0.8 10131285
6 march, sat
sat601:00−7wsw51290100 0.9 1015951
04:00−7sw41292100 0.1 1016643
07:00−6ssw41293100 0.1 1016676
10:00−5ssw61393100 0.8 1014854
13:00−4ssw71293100 1.7 10111062
16:00−4sw71392100 0.9 10101056
19:00−4sw61492100 1.6 10091203
22:00−4sw61391100 0.5 10081049
7 march, sun
sun701:00−3sw61491100 0.7 10091041
04:00−3wsw61290100 0.4 10101133
07:00−5sw41289100 0.4 1013585
10:00−3sw4991100 0.0 1013789
13:00−3s5995100 0.6 1011628
16:00−2ssw61294100 0.8 1009822
19:00−2sw61290100 0.9 1008930
22:00−3sw61292100 0.1 10091042